Racine, WI

12:30 AM CDT on August 19, 2017 (GMT -0500)
Batten

Weather History for KRAC - September, 2013

Change the Weather History Date:

Monday, September 16, 2013

  Actual Average Record
Temperature  
Mean Temperature 54 °F -  
Max Temperature 63 °F 69 °F 90 °F (1948)
Min Temperature 46 °F 54 °F 42 °F (1966)
Degree Days  
Heating Degree Days 10    
Growing Degree Days 4 (Base 50)    
Moisture  
Dew Point 47 °F    
Average Humidity 71    
Maximum Humidity 83    
Minimum Humidity 54    
Precipitation  
Precipitation 0.00 in - - ()
Sea Level Pressure  
Sea Level Pressure 30.35 in    
Wind  
Wind Speed 13 mph (NNE)    
Max Wind Speed 17 mph    
Max Gust Speed 28 mph    
Visibility 10 miles    
Events      
Averages and records for this station are not official NWS values.
T = Trace of Precipitation, MM = Missing Value Source: NWS Daily Summary

Daily Weather History Graph

Daily Weather History Graph

Search for Another Location

Airport or City:

Trip Planner

Search our weather history database for the weather conditions in past years. The results will help you decide how hot, cold, wet, or windy it might be!

Date:

Astronomy

Sep. 16, 2013 Rise Set
Actual Time 6:32 AM CDT 6:58 PM CDT
Civil Twilight 6:03 AM CDT 7:27 PM CDT
Nautical Twilight 5:30 AM CDT 8:00 PM CDT
Astronomical Twilight 4:56 AM CDT 8:34 PM CDT
Moon 5:10 PM CDT (9/16) 3:14 AM CDT (9/16)
Length of Visible Light 13h 23m
Length of Day
12h 26m
Waxing Gibbous, 90% of the Moon is Illuminated
Sep 16
Waxing Gibbous
Sep 19
Full
Sep 26
Last Quarter
Oct 4
New
Oct 11
First Quarter

Hourly Weather History & Observations

Time (CDT) Temp. Windchill Dew Point Humidity Pressure Visibility Wind Dir Wind Speed Gust Speed Precip Events Conditions
12:48 AM 59.0 °F - 51.8 °F 77% 30.24 in 10.0 mi NNE 17.3 mph 23.0 mph N/A   Overcast
12:53 AM 59.0 °F - 51.1 °F 75% 30.24 in 10.0 mi NNE 16.1 mph 25.3 mph N/A   Overcast
1:07 AM 59.0 °F - 51.8 °F 77% 30.24 in 10.0 mi NNE 16.1 mph 26.5 mph N/A   Overcast
1:53 AM 57.0 °F - 48.9 °F 74% 30.26 in 10.0 mi NNE 15.0 mph 25.3 mph N/A   Overcast
2:43 AM 55.4 °F - 48.2 °F 77% 30.27 in 10.0 mi North 13.8 mph 27.6 mph N/A   Overcast
2:50 AM 55.4 °F - 48.2 °F 77% 30.27 in 10.0 mi North 13.8 mph 24.2 mph N/A   Overcast
2:53 AM 54.0 °F - 48.0 °F 80% 30.27 in 10.0 mi North 15.0 mph 24.2 mph N/A   Overcast
3:19 AM 51.8 °F - 46.4 °F 82% 30.27 in 10.0 mi NNW 9.2 mph - N/A   Scattered Clouds
3:53 AM 48.9 °F - 44.1 °F 83% 30.29 in 10.0 mi NNW 10.4 mph - N/A   Clear
4:53 AM 48.0 °F - 42.1 °F 80% 30.31 in 10.0 mi NNW 8.1 mph - N/A   Partly Cloudy
5:53 AM 46.9 °F - 42.1 °F 83% 30.32 in 10.0 mi NNW 9.2 mph - N/A   Clear
6:53 AM 46.0 °F 41.0 °F 41.0 °F 83% 30.34 in 10.0 mi NNW 10.4 mph - N/A   Clear
7:53 AM 48.9 °F - 42.1 °F 77% 30.35 in 10.0 mi NNW 8.1 mph - N/A   Partly Cloudy
8:28 AM 51.8 °F - 44.6 °F 76% 30.36 in 10.0 mi NNW 8.1 mph - N/A   Mostly Cloudy
8:53 AM 53.1 °F - 46.0 °F 77% 30.37 in 10.0 mi NNW 9.2 mph - N/A   Mostly Cloudy
9:13 AM 53.6 °F - 48.2 °F 82% 30.37 in 10.0 mi North 11.5 mph - N/A   Overcast
9:43 AM 57.2 °F - 50.0 °F 77% 30.38 in 10.0 mi North 11.5 mph 20.7 mph N/A   Mostly Cloudy
9:53 AM 57.0 °F - 50.0 °F 77% 30.38 in 10.0 mi North 16.1 mph 20.7 mph N/A   Mostly Cloudy
10:03 AM 57.2 °F - 51.8 °F 82% 30.38 in 10.0 mi NNE 10.4 mph 18.4 mph N/A   Mostly Cloudy
10:20 AM 59.0 °F - 48.2 °F 67% 30.39 in 10.0 mi NE 12.7 mph 19.6 mph N/A   Overcast
10:53 AM 61.0 °F - 46.9 °F 60% 30.39 in 10.0 mi NE 16.1 mph 20.7 mph N/A   Mostly Cloudy
11:53 AM 61.0 °F - 48.0 °F 62% 30.40 in 10.0 mi NNE 13.8 mph - N/A   Overcast
12:53 PM 62.1 °F - 46.9 °F 58% 30.41 in 10.0 mi NE 13.8 mph 23.0 mph N/A   Scattered Clouds
1:53 PM 63.0 °F - 46.0 °F 54% 30.40 in 10.0 mi NNE 15.0 mph 20.7 mph N/A   Partly Cloudy
2:09 PM 60.8 °F - 46.4 °F 59% 30.39 in 10.0 mi NNE 12.7 mph 21.9 mph N/A   Mostly Cloudy
2:31 PM 62.6 °F - 46.4 °F 55% 30.38 in 10.0 mi NE 15.0 mph - N/A   Scattered Clouds
2:53 PM 62.1 °F - 46.9 °F 58% 30.38 in 10.0 mi NNE 10.4 mph 20.7 mph N/A   Mostly Cloudy
3:26 PM 60.8 °F - 46.4 °F 59% 30.38 in 10.0 mi NNE 13.8 mph 20.7 mph N/A   Scattered Clouds
3:44 PM 60.8 °F - 46.4 °F 59% 30.38 in 10.0 mi NNE 11.5 mph - N/A   Mostly Cloudy
3:53 PM 60.1 °F - 45.0 °F 57% 30.38 in 10.0 mi NNE 12.7 mph - N/A   Scattered Clouds
4:29 PM 60.8 °F - 46.4 °F 59% 30.37 in 10.0 mi North 13.8 mph - N/A   Mostly Cloudy
4:43 PM 60.8 °F - 44.6 °F 55% 30.37 in 10.0 mi NNE 11.5 mph - N/A   Scattered Clouds
4:53 PM 59.0 °F - 45.0 °F 60% 30.38 in 10.0 mi NE 13.8 mph - N/A   Partly Cloudy
5:53 PM 57.9 °F - 45.0 °F 62% 30.38 in 10.0 mi NNE 12.7 mph - N/A   Partly Cloudy
6:53 PM 54.0 °F - 45.0 °F 72% 30.37 in 10.0 mi NE 9.2 mph - N/A   Clear
7:53 PM 52.0 °F - 44.1 °F 74% 30.36 in 10.0 mi NE 5.8 mph - N/A   Clear
8:53 PM 52.0 °F - 45.0 °F 77% 30.36 in 10.0 mi East 5.8 mph - N/A   Clear
9:53 PM 55.0 °F - 46.9 °F 74% 30.37 in 10.0 mi East 5.8 mph - N/A   Scattered Clouds
10:14 PM 55.4 °F - 46.4 °F 72% 30.36 in 10.0 mi East 6.9 mph - N/A   Mostly Cloudy
10:48 PM 55.4 °F - 46.4 °F 72% 30.36 in 10.0 mi East 6.9 mph - N/A   Scattered Clouds
10:53 PM 55.9 °F - 46.9 °F 72% 30.36 in 10.0 mi East 4.6 mph - N/A   Scattered Clouds
11:11 PM 57.2 °F - 48.2 °F 72% 30.36 in 10.0 mi ESE 5.8 mph - N/A   Mostly Cloudy
11:53 PM 55.9 °F - 46.9 °F 72% 30.36 in 10.0 mi ESE 6.9 mph - N/A   Partly Cloudy